User: anonymous   Login
Location: Unspecified
(0.0000°N, 0.0000°E)
Time: 13:29:11
(UTC+00:00)
Language:

Polar BEAR P87-1 - Orbit

View from above orbital plane
View from above orbital plane
View from above satellite
View from above satellite

Ground track
Ground track

The orbit data is extracted from the following two-line orbital elements,

1 17070U 86088A   21015.94544422  .00000053  00000-0  42977-4 0  9999
2 17070  89.5368 262.1880 0040440 121.6131 249.9870 13.74815070713578
Epoch (UTC): 15 January 2021 22:41:26
Eccentricity: 0.0040440
inclination: 89.5368°
perigee height: 952 km
apogee height: 1012 km
right ascension of ascending node: 262.1880°
argument of perigee: 121.6131°
revolutions per day: 13.74815070
mean anomaly at epoch: 249.9870°
orbit number at epoch: 71357

The dashed part of the orbit path shows where the satellite is in the earth's shadow,  

DLR